YD6HRD-13 Weather Reports


time (UTC)temp
C
wind
direction
speed
KPH
gust
KPH
rain 1hr
cm
rain 24hr
cm
rain mn
cm
humidity
%
barometer
mb
20260905161433 37 0.0 0.0 0.00 0.00 0.00 63 1023.2
20260905160433 38 0.0 0.0 0.00 0.00 0.00 62 1023.3
20260905155933 37 0.0 0.0 0.00 0.00 0.00 63 1023.3
20260905153933 37 0.0 0.0 0.00 0.00 0.00 64 1023.0
20260905153433 37 0.0 0.0 0.00 0.00 0.00 64 1023.0
20260905152933 37 0.0 0.0 0.00 0.00 0.00 64 1023.0
20260905152433 37 0.0 0.0 0.00 0.00 0.00 63 1022.9
20260905151933 37 0.0 0.0 0.00 0.00 0.00 64 1023.0
20260905151433 37 0.0 0.0 0.00 0.00 0.00 64 1023.2
20260905150433 37 0.0 0.0 0.00 0.00 0.00 64 1023.0
20260905144933 37 0.0 0.0 0.00 0.00 0.00 64 1022.9
20260905143433 37 0.0 0.0 0.00 0.00 0.00 63 1022.8
20260905141933 38 0.0 0.0 0.00 0.00 0.00 62 1022.5
20260905141433 38 0.0 0.0 0.00 0.00 0.00 61 1022.4
20260905135933 38 0.0 0.0 0.00 0.00 0.00 62 1022.3
20260905135433 38 0.0 0.0 0.00 0.00 0.00 61 1022.3
20260905134933 38 0.0 0.0 0.00 0.00 0.00 62 1022.2
20260905134433 38 0.0 0.0 0.00 0.00 0.00 62 1022.0
20260905133933 38 0.0 0.0 0.00 0.00 0.00 62 1021.9
20260905133433 37 0.0 0.0 0.00 0.00 0.00 63 1021.9
20260905132933 38 0.0 0.0 0.00 0.00 0.00 62 1021.8
20260905132433 38 0.0 0.0 0.00 0.00 0.00 61 1021.7
20260905130933 38 0.0 0.0 0.00 0.00 0.00 61 1021.6
20260905125433 38 0.0 0.0 0.00 0.00 0.00 60 1021.8
20260905123433 38 0.0 0.0 0.00 0.00 0.00 61 1021.3
20260905122933 38 0.0 0.0 0.00 0.00 0.00 61 1021.1
20260905122433 38 0.0 0.0 0.00 0.00 0.00 60 1021.1
20260905121933 38 0.0 0.0 0.00 0.00 0.00 60 1021.0
20260905121433 38 0.0 0.0 0.00 0.00 0.00 60 1020.9
20260905115933 38 0.0 0.0 0.00 0.00 0.00 61 1020.9
20260905115433 38 0.0 0.0 0.00 0.00 0.00 62 1020.8
20260905114933 38 0.0 0.0 0.00 0.00 0.00 62 1020.7
20260905114433 38 0.0 0.0 0.00 0.00 0.00 62 1020.6
20260905113933 38 0.0 0.0 0.00 0.00 0.00 62 1020.4
20260905111933 38 0.0 0.0 0.00 0.00 0.00 61 1020.1
20260905105933 37 0.0 0.0 0.00 0.00 0.00 62 1019.8
20260905105433 37 0.0 0.0 0.00 0.00 0.00 62 1019.6
20260905101933 38 0.0 0.0 0.00 0.00 0.00 61 1019.4
20260905100933 38 0.0 0.0 0.00 0.00 0.00 62 1019.3
20260905100433 36 0.0 0.0 0.00 0.00 0.00 66 1019.2
20260905094933 38 0.0 0.0 0.00 0.00 0.00 61 1019.2
20260905093933 38 0.0 0.0 0.00 0.00 0.00 59 1019.2
20260905092933 38 0.0 0.0 0.00 0.00 0.00 62 1019.3
20260905091933 39 0.0 0.0 0.00 0.00 0.00 60 1019.3
20260905090933 35 0.0 0.0 0.00 0.00 0.00 69 1019.3
20260905090433 39 0.0 0.0 0.00 0.00 0.00 59 1019.3
20260905084933 37 0.0 0.0 0.00 0.00 0.00 63 1019.3
20260905082933 39 0.0 0.0 0.00 0.00 0.00 60 1019.4
20260905082433 40 0.0 0.0 0.00 0.00 0.00 58 1019.3
20260905081933 38 0.0 0.0 0.00 0.00 0.00 59 1019.4
20260905081433 40 0.0 0.0 0.00 0.00 0.00 58 1019.5
20260905080433 37 0.0 0.0 0.00 0.00 0.00 63 1019.6
20260905075933 38 0.0 0.0 0.00 0.00 0.00 61 1019.5
20260905075433 38 0.0 0.0 0.00 0.00 0.00 62 1019.5
20260905073933 38 0.0 0.0 0.00 0.00 0.00 62 1019.8
20260905073433 36 0.0 0.0 0.00 0.00 0.00 66 1019.9
20260905072433 37 0.0 0.0 0.00 0.00 0.00 63 1020.0
20260905071933 40 0.0 0.0 0.00 0.00 0.00 57 1020.1
20260905065933 36 0.0 0.0 0.00 0.00 0.00 66 1020.3
20260905065433 36 0.0 0.0 0.00 0.00 0.00 66 1020.4
20260905064933 38 0.0 0.0 0.00 0.00 0.00 59 1020.4
20260905063933 39 0.0 0.0 0.00 0.00 0.00 59 1020.6
20260905063433 36 0.0 0.0 0.00 0.00 0.00 63 1020.8
20260905062933 38 0.0 0.0 0.00 0.00 0.00 60 1020.8
20260905062433 38 0.0 0.0 0.00 0.00 0.00 60 1020.8
20260905061433 38 0.0 0.0 0.00 0.00 0.00 62 1021.0
20260905060933 37 0.0 0.0 0.00 0.00 0.00 60 1021.0
20260905060433 39 0.0 0.0 0.00 0.00 0.00 58 1021.1
20260905055433 38 0.0 0.0 0.00 0.00 0.00 60 1021.4
20260905054933 39 0.0 0.0 0.00 0.00 0.00 59 1021.5
20260905054433 37 0.0 0.0 0.00 0.00 0.00 60 1021.6
20260905053933 40 0.0 0.0 0.00 0.00 0.00 59 1021.6
20260905052433 39 0.0 0.0 0.00 0.00 0.00 59 1021.9
20260905051433 39 0.0 0.0 0.00 0.00 0.00 59 1022.3
20260905044433 38 0.0 0.0 0.00 0.00 0.00 60 1022.5
20260905042933 40 0.0 0.0 0.00 0.00 0.00 59 1022.6
20260905042433 39 0.0 0.0 0.00 0.00 0.00 59 1022.7
20260905041933 39 0.0 0.0 0.00 0.00 0.00 60 1022.8
20260905041433 38 0.0 0.0 0.00 0.00 0.00 61 1022.9
20260905035933 38 0.0 0.0 0.00 0.00 0.00 60 1023.1
20260905035433 38 0.0 0.0 0.00 0.00 0.00 60 1023.1
20260905034933 39 0.0 0.0 0.00 0.00 0.00 60 1023.2
20260905034433 37 0.0 0.0 0.00 0.00 0.00 61 1023.3
20260905030433 38 0.0 0.0 0.00 0.00 0.00 61 1023.6
20260905025433 37 0.0 0.0 0.00 0.00 0.00 62 1023.5
20260905024933 37 0.0 0.0 0.00 0.00 0.00 62 1023.6
20260905022933 37 0.0 0.0 0.00 0.00 0.00 63 1023.6
20260905021933 37 0.0 0.0 0.00 0.00 0.00 62 1023.6
20260905021433 36 0.0 0.0 0.00 0.00 0.00 63 1023.6
20260905014933 36 0.0 0.0 0.00 0.00 0.00 64 1023.7
20260905014433 36 0.0 0.0 0.00 0.00 0.00 64 1023.8
20260905013933 36 0.0 0.0 0.00 0.00 0.00 64 1023.7
20260905012433 36 0.0 0.0 0.00 0.00 0.00 64 1023.5
20260905010933 35 0.0 0.0 0.00 0.00 0.00 65 1023.5
20260905005933 35 0.0 0.0 0.00 0.00 0.00 64 1023.3
20260905005433 35 0.0 0.0 0.00 0.00 0.00 65 1023.2
20260905004933 35 0.0 0.0 0.00 0.00 0.00 64 1023.0
20260905003433 35 0.0 0.0 0.00 0.00 0.00 63 1022.8
20260905001433 35 0.0 0.0 0.00 0.00 0.00 64 1022.5
20260905000433 35 0.0 0.0 0.00 0.00 0.00 64 1022.5
20260904235933 35 0.0 0.0 0.00 0.00 0.00 64 1022.5
20260904235433 34 0.0 0.0 0.00 0.00 0.00 66 1022.4
20260904234933 35 0.0 0.0 0.00 0.00 0.00 65 1022.4
20260904232433 35 0.0 0.0 0.00 0.00 0.00 66 1022.2
20260904231933 35 0.0 0.0 0.00 0.00 0.00 66 1022.1
20260904230933 33 0.0 0.0 0.00 0.00 0.00 68 1022.0
20260904230433 33 0.0 0.0 0.00 0.00 0.00 68 1022.0
20260904224933 33 0.0 0.0 0.00 0.00 0.00 68 1021.9
20260904224433 33 0.0 0.0 0.00 0.00 0.00 67 1021.8
20260904223933 34 0.0 0.0 0.00 0.00 0.00 67 1021.9
20260904222933 33 0.0 0.0 0.00 0.00 0.00 68 1021.9
20260904222433 33 0.0 0.0 0.00 0.00 0.00 68 1021.9
20260904221933 34 0.0 0.0 0.00 0.00 0.00 67 1021.8
20260904221433 33 0.0 0.0 0.00 0.00 0.00 68 1021.8
20260904215933 33 0.0 0.0 0.00 0.00 0.00 67 1021.8
20260904213933 34 0.0 0.0 0.00 0.00 0.00 67 1021.6
20260904213433 34 0.0 0.0 0.00 0.00 0.00 67 1021.6
20260904212933 34 0.0 0.0 0.00 0.00 0.00 67 1021.7
20260904210933 34 0.0 0.0 0.00 0.00 0.00 67 1021.6
20260904210433 34 0.0 0.0 0.00 0.00 0.00 67 1021.5
20260904205933 34 0.0 0.0 0.00 0.00 0.00 67 1021.5
20260904203933 35 0.0 0.0 0.00 0.00 0.00 65 1021.4
20260904202933 33 0.0 0.0 0.00 0.00 0.00 69 1021.4
20260904202433 33 0.0 0.0 0.00 0.00 0.00 68 1021.5
20260904201433 33 0.0 0.0 0.00 0.00 0.00 68 1021.5
20260904200932 35 0.0 0.0 0.00 0.00 0.00 66 1021.4
20260904200433 35 0.0 0.0 0.00 0.00 0.00 66 1021.5
20260904195432 34 0.0 0.0 0.00 0.00 0.00 68 1021.6
20260904194433 35 0.0 0.0 0.00 0.00 0.00 64 1021.6
20260904193933 35 0.0 0.0 0.00 0.00 0.00 66 1021.6
20260904193433 35 0.0 0.0 0.00 0.00 0.00 65 1021.6
20260904192933 36 0.0 0.0 0.00 0.00 0.00 63 1021.6
20260904192433 35 0.0 0.0 0.00 0.00 0.00 66 1021.8
20260904190933 35 0.0 0.0 0.00 0.00 0.00 64 1021.9
20260904190433 35 0.0 0.0 0.00 0.00 0.00 65 1021.9
20260904185933 35 0.0 0.0 0.00 0.00 0.00 65 1021.9
20260904184933 35 0.0 0.0 0.00 0.00 0.00 64 1021.9
20260904184433 35 0.0 0.0 0.00 0.00 0.00 64 1022.0
20260904183433 35 0.0 0.0 0.00 0.00 0.00 66 1022.1
20260904181933 35 0.0 0.0 0.00 0.00 0.00 64 1022.1
20260904181433 35 0.0 0.0 0.00 0.00 0.00 64 1022.1
20260904180933 36 0.0 0.0 0.00 0.00 0.00 63 1022.1
20260904180433 35 0.0 0.0 0.00 0.00 0.00 65 1022.2
20260904175933 35 0.0 0.0 0.00 0.00 0.00 66 1022.2
20260904175433 35 0.0 0.0 0.00 0.00 0.00 65 1022.3
20260904174933 35 0.0 0.0 0.00 0.00 0.00 64 1022.4
20260904174432 36 0.0 0.0 0.00 0.00 0.00 62 1022.4
20260904173933 35 0.0 0.0 0.00 0.00 0.00 64 1022.6
20260904171433 36 0.0 0.0 0.00 0.00 0.00 62 1022.8
20260904170432 35 0.0 0.0 0.00 0.00 0.00 64 1022.9
20260904164932 35 0.0 0.0 0.00 0.00 0.00 64 1023.1
20260904163433 35 0.0 0.0 0.00 0.00 0.00 64 1023.3
20260904162933 35 0.0 0.0 0.00 0.00 0.00 64 1023.3
20260904162433 35 0.0 0.0 0.00 0.00 0.00 64 1023.3